Location: Greenhawk Observatory
(37.3417°N, 122.0298°W)
Time: 19:44:49
(UTC-07:00)

Daily predictions for brighter satellites

Satellite Brightness Start Highest point End
(mag) Time Altitude Azimuth Time Altitude Azimuth Time Altitude Azimuth
Cosmos 2227 Rocket 3.6 20:04:44 10° N 20:09:03 22° NE 20:13:21 10° ESE
NOSS 2-1 (E) 3.3 20:07:08 10° SSW 20:10:56 64° ESE 20:15:11 10° NE
ALOS 2.8 20:06:49 10° SE 20:11:09 40° ENE 20:15:31 10° N
HJ-1C 3.5 20:08:17 10° S 20:11:33 80° W 20:14:51 10° NNW
Cosmos 1943 Rocket 4.4 20:06:57 10° WSW 20:11:51 31° WNW 20:16:50 10° N
Meteor 1-19 Rocket 4.2 20:07:14 10° N 20:12:55 76° E 20:18:29 10° SSE
FENGYUN 3A 4.0 20:09:45 10° SE 20:14:48 45° ENE 20:19:52 10° N
Helios 1B rocket 3.1 20:11:00 10° N 20:15:06 61° WNW 20:19:08 10° SSW
Cosmos 1777 Rocket 4.3 20:15:28 10° N 20:20:34 49° ENE 20:25:40 10° SE
Meteor 2-21 4.5 20:18:01 10° S 20:24:13 82° E 20:30:24 10° N
Meteor 2-21 Rocket 4.5 20:18:06 10° S 20:24:13 67° E 20:30:21 10° NNE
Cosmos 2297 Rocket 3.6 20:20:39 10° N 20:24:54 21° NE 20:28:59 10° ESE
Lacrosse 5 4.2 20:24:06 10° N 20:25:52 12° NNE 20:27:40 10° NE
Helios 1A 3.8 20:22:43 10° S 20:26:48 55° W 20:30:55 10° NNW
Cosmos 2208 Rocket 4.2 20:24:43 10° S 20:29:48 50° ESE 20:34:59 10° NNE
Meteor 1-11 Rocket 4.5 20:24:32 10° SSW 20:30:02 58° WNW 20:35:30 10° N
Cosmos 2123 Rocket 4.3 20:24:19 10° N 20:30:13 44° ENE 20:36:04 10° SSE
Cosmos 1892 Rocket 3.7 20:26:47 10° N 20:31:13 59° E 20:35:37 10° SSE
Okean 2 3.6 20:27:51 10° N 20:31:55 49° E 20:35:56 10° SSE
Resurs 1-3 4.0 20:27:36 10° S 20:31:57 68° WSW 20:36:20 10° NNW
Cosmos 1975 4.1 20:31:50 10° SE 20:35:03 23° E 20:38:17 10° NE
Cosmos 1455 Rocket 3.2 20:31:05 10° S 20:35:15 51° E 20:39:28 10° NNE
Cosmos 1025 Rocket 3.3 20:31:50 10° NNW 20:36:12 72° W 20:40:29 10° S
Meteor 2-15 4.4 20:35:26 10° N 20:41:28 68° E 20:47:29 10° SSE
Meteor 2-14 Rocket 4.4 20:37:04 10° S 20:43:13 83° E 20:49:23 10° N
Tiangong 1 2.5 20:42:54 10° W 20:45:48 35° NNW 20:48:39 10° ENE
Meteor 2-15 Rocket 4.4 20:40:21 10° N 20:46:23 63° E 20:52:21 10° SSE
Resurs 01 Rocket 3.4 20:42:56 10° SSW 20:46:56 34° W 20:50:59 10° NNW
Cosmos 2219 4.1 20:41:42 10° NNW 20:47:06 49° WSW 20:52:28 10° S
Lacrosse 5 rocket 3.0 20:44:35 10° N 20:47:12 18° NE 20:49:06 13° ENE
Cosmos 1570 Rocket 4.0 20:42:52 10° SSW 20:48:10 83° ESE 20:53:28 10° NNE
Cosmos 1461 3.8 20:44:35 10° N 20:48:12 30° NE 20:50:13 19° E
CZ-4 DEB 3.8 20:47:39 21° ESE 20:48:47 27° ENE 20:51:29 10° NNE
NOSS 7 (D) 4.3 20:45:44 10° SSW 20:49:19 79° ESE 20:52:39 10° NE
USA 186 1.5 20:47:25 10° SSE 20:50:36 80° ENE 20:53:37 10° N
NOSS 3-4 (A) 3.9 20:45:10 10° NNW 20:52:12 67° NE 20:58:16 16° SE
NOSS 3-4 (C) 3.9 20:45:17 10° NNW 20:52:19 66° NE 20:58:21 16° SE
OTV 4 0.4 20:51:00 10° W 20:53:58 79° N 20:55:25 27° E
Envisat 3.9 20:51:27 18° ESE 20:54:11 29° ENE 20:58:32 10° N
EO 1 Delta rocket 4.0 20:51:50 10° N 20:56:31 88° W 21:01:50 10° SSW
CZ-4B DEB 4.5 20:54:05 10° SSW 20:57:06 34° W 21:00:08 10° NNW
Meteor 2-4 Rocket 4.5 20:53:40 10° NNW 20:59:23 58° W 21:05:11 10° S
H-2A R/B 3.1 20:55:44 10° S 20:59:32 67° W 21:03:26 10° NNW
Meteor 1-12 Rocket 4.3 20:55:16 10° S 21:00:50 60° E 21:06:32 10° NNE
Cosmos 1934 Rocket 4.2 20:55:26 10° SSW 21:01:30 74° W 21:07:44 10° N
Cosmos 2278 3.7 20:57:07 10° SSW 21:02:47 89° ESE 21:08:30 10° NNE
Cosmos 1697 Rocket 3.4 20:58:03 10° SSE 21:02:54 30° ESE 21:07:45 10° NE
BREEZE-M DEB (TANK) 4.2 21:02:51 10° N 21:04:01 12° NNE 21:05:25 10° NE
Cosmos 1939 Rocket 3.6 21:04:27 27° ESE 21:05:56 37° ENE 21:09:46 10° N
DELTA 2 R/B (1) 3.7 21:01:13 10° W 21:06:47 71° N 21:10:34 21° E
Delta 2 Rocket 4.0 21:03:42 10° W 21:09:15 66° S 21:11:50 29° ESE
Cosmos 2369 3.8 21:10:05 10° SSW 21:15:44 81° WNW 21:21:28 10° NNE
Iridium 4 Rocket 3.3 21:11:13 10° N 21:16:20 64° E 21:19:13 23° SSE
SJ-11-01 4.2 21:15:06 23° SSE 21:17:59 73° ENE 21:22:40 10° N
OAO 2 Rocket 3.5 21:15:09 10° WSW 21:20:04 54° SSE 21:21:56 35° ESE
Hubble Space Telescope 2.6 21:19:50 10° WSW 21:22:42 18° SSW 21:23:04 18° S
Cosmos 1980 Rocket 3.3 21:25:46 26° E 21:25:46 26° E 21:29:20 10° NE
Cosmos 1346 Rocket 4.1 21:25:54 10° NNW 21:29:34 38° W 21:33:03 11° SSW
ERS-1 Rocket 2.9 21:27:33 26° SSE 21:30:25 89° ENE 21:35:28 10° NNW
ARGOS 4.4 21:31:03 23° ENE 21:31:26 24° ENE 21:35:37 10° NNE
Cosmos 1898 Rocket 3.8 21:28:58 10° N 21:34:06 48° ENE 21:35:11 41° ESE
RESURS DK-1 4.0 21:32:25 10° N 21:35:13 21° NE 21:35:13 21° NE
SL-24 R/B - RUBIN 2 4.2 21:30:35 10° SSW 21:36:18 82° ESE 21:42:43 10° NNE
Cosmos 2173 Rocket 4.0 21:38:28 28° SSE 21:41:50 62° E 21:48:06 10° NNE
Cosmos 1500 3.2 21:44:14 62° SW 21:44:45 76° W 21:48:32 10° N
CZ-3C R/B 3.9 21:16:01 10° W 21:46:50 32° SSW 21:51:06 23° S
Cosmos 2061 Rocket 3.9 21:45:33 30° S 21:48:49 71° E 21:55:05 10° NNE
Cosmos 2100 Rocket 3.9 21:46:39 23° S 21:50:44 81° E 21:57:01 10° N
MetOp-B 4.2 21:51:33 54° ESE 21:52:13 59° ENE 21:57:28 10° N
Cosmos 468 Rocket 3.8 21:49:19 18° SSW 21:53:10 89° WNW 21:58:20 10° NNE
Cosmos 1825 Rocket 4.1 21:48:58 10° N 21:52:32 45° NE 21:52:32 45° NE
Cosmos 2227 Rocket 2.8 21:47:55 10° NNW 21:53:24 51° WSW 21:56:06 28° SSW
Cosmos 1814 Rocket 3.9 21:58:00 35° SSW 22:00:19 88° ESE 22:05:40 10° NNE
Cosmos 1340 4.3 21:59:24 10° N 22:01:17 26° NNE 22:01:17 26° NNE
Cosmos 1656 4.2 21:57:46 10° SW 22:03:18 57° WNW 22:08:49 10° NNE
H-2A R/B 2.1 22:03:40 68° WNW 22:03:40 68° WNW 22:07:32 10° NNW
Cosmos 2297 Rocket 2.7 22:03:45 10° NNW 22:09:14 53° WSW 22:10:49 40° SSW
Lacrosse 5 2.6 22:05:19 10° NNW 22:09:59 41° NE 22:09:59 41° NE
deb Chang Zheng 4 4.3 22:06:07 10° N 22:10:28 52° WNW 22:11:54 36° SW
SPOT 5 2.9 22:11:02 72° SSW 22:11:26 78° WSW 22:16:24 10° NNW
Cosmos 972 Rocket 4.4 22:07:11 10° NNW 22:13:08 88° ENE 22:14:11 65° SSE
Cosmos 1743 4.0 22:16:41 38° NNW 22:16:41 38° NNW 22:19:20 10° N
USA 215 3.9 22:16:43 37° ENE 22:18:18 43° NE 22:24:24 10° NW
YAOGAN 6 4.4 22:21:11 30° NNW 22:21:11 30° NNW 22:23:11 10° NNW
Cosmos 2298 Rocket 4.4 22:16:19 10° NNW 22:21:30 55° WSW 22:22:00 53° SW
Tiangong 1 4.2 22:19:57 10° WNW 22:20:46 16° NW 22:20:46 16° NW
Cosmos 1725 Rocket 4.0 22:26:55 63° ENE 22:26:55 63° ENE 22:32:27 10° NNE
Lacrosse 5 rocket 3.2 22:23:06 10° NW 22:24:50 24° WNW 22:24:50 24° WNW
H-2A R/B 3.3 22:31:30 29° NNE 22:31:30 29° NNE 22:34:20 10° N
Cosmos 2098 Rocket 4.1 22:36:05 74° S 22:36:48 89° W 22:43:09 10° N
GEOS 3 Rocket 4.5 22:33:53 10° NNE 22:37:08 40° NNE 22:37:08 40° NNE
Cosmos 1937 Rocket 4.1 22:36:52 10° NNW 22:41:24 52° WNW 22:41:24 52° WNW
Cosmos 1697 Rocket 4.2 22:41:37 10° SW 22:46:43 34° WNW 22:51:51 10° N
SPOT 1/Viking Rocket 4.3 22:49:25 51° NW 22:49:25 51° NW 22:53:37 10° NNW
SL-16 R/B 4.2 22:53:37 17° NE 22:53:37 17° NE 22:54:58 10° NNE
Milstar 3 Cent rocket 4.0 22:39:05 10° W 22:54:50 49° SSW 22:55:17 49° SSW
Terra 3.6 22:58:02 26° N 22:58:02 26° N 23:00:11 10° N
BREEZE-M DEB (TANK) 4.3 22:47:44 10° SW 23:00:58 78° NW 23:00:58 78° NW
BREEZE-M DEB (TANK) 4.1 22:54:42 10° W 23:03:39 43° NNW 23:03:49 43° NNW
Cosmos 1980 Rocket 3.4 23:07:25 35° W 23:08:23 37° WNW 23:13:40 10° N
ARGOS 4.4 23:12:35 36° WNW 23:12:35 36° WNW 23:16:27 10° NNW
BREEZE-M DEB (TANK) 4.4 22:59:21 10° WNW 23:23:38 65° NNE 23:24:17 63° NE
BREEZE-M DEB (TANK) 4.2 23:11:04 10° WNW 23:23:43 55° N 23:23:43 55° N
Cosmos 2322 Rocket 4.0 23:42:07 26° N 23:42:07 26° N 23:44:36 10° NNE
Cosmos 2263 Rocket 3.9 23:35:28 10° NNW 23:38:03 27° N 23:38:03 27° N
